Location: Mountain Grove
(34.0887°N, 86.6172°W)
Time: 15:17:19
(UTC+00:00)

SL-16 R/B - Pass Details

Date: 14 July 2020
Orbit: 985 x 1007 km, 99.5° (Epoch: 13 August)

Event Time Altitude Azimuth Distance (km) Brightness Sun altitude
Exits shadow 08:57:24 19° 270° (W) 2,162 3.9 -19.1°
Drops below altitude 10° 09:01:27 10° 310° (NW) 2,780 4.8 -18.5°
Sets 09:04:44 0° 328° (NNW) 3,737 5.7 -18.0°
